Asteroid 2009 CS5
(Preview)
Solar System
0
430
Asteroid 2009 CS5 = SW40fv (NEOCPO) Orbital elements: 2009 CS5 Earth MOID = 0.2421 AU Epoch 2008 Nov. 30.0 TT = JDT 2454800.5 MPC M 251.65455 (2000.0) P Q n 0.54492418 Peri. 315.38326 +0.16360054 +0.93716827 a 1.4844947 Node 320.77646 -0.71276145 -0.10366336 e 0.6532934 Incl. 29.16300 -0.682060...
Asteroid 2009 CQ5
(Preview)
Solar System
0
493
Asteroid 2009 CQ5 = 9C0D791 (NEOCPO) Orbital elements: 2009 CQ5 Earth MOID = 0.0815 AU Epoch 2008 Nov. 30.0 TT = JDT 2454800.5 MPC M 329.94710 (2000.0) P Q n 1.12208169 Peri. 107.21383 +0.85002543 -0.41820559 a 0.9171768 Node 278.50627 +0.26814390 +0.86686485 e 0.0858621 Incl. 18.89369 +0.45338...
Asteroid 2009 CO5
(Preview)
Solar System
0
464
Asteroid 2009 CO5 = 9C0EB91 (NEOCPO) Orbital elements: 2009 CO5 Earth MOID = 0.0947 AU Epoch 2008 Nov. 30.0 TT = JDT 2454800.5 MPC M 317.97401 (2000.0) P Q n 0.46281014 Peri. 171.51207 -0.91377305 -0.40574665 a 1.6552648 Node 344.50486 +0.36823876 -0.80686401 e 0.3444225 Incl. 4.23087 +0.171519...
Edmonton meteor
(Preview)
Meteorite News
1
733
A surprise in the sky tonight for people in areas surrounding Edmonton. Listener John Visscher tells iNews880 he was heading north on the Manning Freeway near Gibbons at about 10 p.m. when he caught quite the sight - what looked like a meteor flashing across the sky. [url=http://www.inews880.com...
Nova Vulpeculae 2007
(Preview)
Events
2
847
A magnitude 9.5 nova in Vulpeculae Nova Vul 07 (CBET 1027) was discovered by Hiroshi Abe on 8th August, 2007. Position(2000): RA = 19:54:24.64 Dec = +20:52:51.9
Asteroid 2009 BA11
(Preview)
Solar System
2
689
2009 BA11 = 9B012A2 (NEOCPO)Orbital elements: 2009 BA11 Earth MOID = 0.0280 AU Epoch 2008 Nov. 30.0 TT = JDT 2454800.5 MPC M 325.01746 (2000.0) P Q n 0.36971913 Peri. 212.53390 -0.98181157 -0.18250107 a 1.9225963 Node 316.85206 +0.18642083 -0.87446355 e 0.4825959 Incl. 4.38926 +0.03596259 -0.4...
Windows Live Messenger
(Preview)
Computers
3
713
Microsoft instant-messaging users who arent yet running version 8.1 (or higher) of Windows Live Messenger, take note: Your days are numbered. "We will soon configure the service such that any user on Windows XP or later system has to use Windows Live Messenger 8.1. When a user using an older ve...
HOTBIRD 10
(Preview)
Mission News
4
855
The HOT BIRD 10 satellite for Arianespace's initial Ariane 5 mission of 2009 was delivered to French Guiana today, arriving aboard a chartered cargo jetliner that completed its transatlantic trip from Europe. This spacecraft will be launched on the February 12 flight, which will mark the start of...
Sun 13.02.09
(Preview)
Events
0
461
A new sunspot, 11012, has emerged from the sun's eastern limb. Expand (173kb, 560 x 560) Credit: SOHO/MDI
Baton Rouge meteor
(Preview)
Meteorite News
0
689
You wouldn't call it panic, but there was notice well taken by those few folk in Crowley who thought Sputnik was going to crash down on them 50 years ago this week. The talk began when the crew of a commercial airplane reported sighting what its members believed to be the breakup of Sputnik II while flyin...
IMO 2009
(Preview)
Events
0
499
The International Meteor Organisation (IMO) will hold its next annual International Meteor Conference (IMC) in Porec from September 24 till 27, 2009. Both amateur and professional astronomers are welcome to join us in this four-day event. The location of the conference is in the town Porec, loca...
Cloud Creek Impact Crater
(Preview)
Meteorite News
0
942
Wyoming's Impact Crater Click to Play | View Details Cloud Creek is an impact crater in Wyoming, United States. It is 7 kilometres in diameter and the age is estimated to be 190 ± 30 million years, placing it at the start of the Jurassic. The crater is not exposed at the surface. [url=http://en.wikiped...
Haleakala Telescope
(Preview)
General news
0
475
[url=http://www.honoluluadvertiser.com/article/20090211/GETPUBLISHED/90210...
SGR J1550-5418
(Preview)
Cosmology News
1
1349
Astronomers using NASA's Swift satellite and Fermi Gamma-ray Space Telescope are seeing frequent blasts from a stellar remnant 30,000 light-years away. The high-energy fireworks arise from a rare type of neutron star known as a soft-gamma-ray repeater. Such objects unpredictably send out a se...
Durfee telescope
(Preview)
General news
0
501
[url=http://www.heraldnews.com/education/x545177655/Things-looking-up-for-Durfee-telescop...
«First < 1
2156 2157 2158 2159 2160
2461 > Last» | Page
